STARLINK-1637 (46133 NORAD) Tracking and Keplerian Element Data

This shows tracking and keplerian element data for the satellite.

Feedback or suggestion? Click here.




ElementValue
Catalog46133
NameSTARLINK-1637
Epoch Orbit182
Epoch Day335.91670139
Epoch Year2020
RAAN288.4249
Inclination53
Eccentricity0.000491
Argument of Perigee317.5296
Mean Anonmoly46.2246
Mean Motion15.62728147
Decay Rate-0.0005201
L11 46133U 20057S 20335.91670139 -.00052010 00000-0 -56593-3 0 9991
L22 46133 53.0000 288.4249 0004910 317.5296 46.2246 15.62728147 1829

Live tracking and technical data element details for STARLINK-1637 (NORAD 46133). STARLINK-1637 can be tracked NOW for your location showing map with azimuth and elevation plus other details from your city location.

Track the satellite on the map from your city or location and see movement details for azimuth, elevation, latitude, longitude, range, height, and movement on the map or in text.







IsCatalogInMostPopularTable: catalog: 46133, numindb: 19
Update: records affected: 1



GetName: 46133 STARLINK-1637

Hit Count: updated at: Tue, 01 Dec 2020 20:27:27 GMT